Change the Weather History Date:

Tuesday, July 12, 2011

  Actual Average Record
Temperature  
Mean Temperature 80 °F -  
Max Temperature 87 °F 83 °F 93 °F (2000)
Min Temperature 73 °F 69 °F 68 °F (1998)
Cooling Degree Days 15    
Growing Degree Days 30 (Base 50)    
Moisture  
Dew Point 65 °F    
Average Humidity 62    
Maximum Humidity 94    
Minimum Humidity 33    
Precipitation  
Precipitation 0.00 in - - ()
Sea Level Pressure  
Sea Level Pressure 29.89 in    
Wind  
Wind Speed 10 mph ()    
Max Wind Speed 18 mph    
Max Gust Speed 17 mph    
Visibility 6.2 miles    
Events      
Averages and records for this station are not official NWS values.
T = Trace of Precipitation, MM = Missing Value Source: Averaged Metar Reports

Daily Weather History Graph

Daily Weather History Graph

Search for Another Location

Airport or City:

Trip Planner

Search our weather history database for the weather conditions in past years. The results will help you decide how hot, cold, wet, or windy it might be!

Date:

Astronomy

Jul. 12, 2011 Rise Set
Actual Time 5:42 AM EEST 8:37 PM EEST
Civil Twilight 5:10 AM EEST 9:10 PM EEST
Nautical Twilight 4:28 AM EEST 9:51 PM EEST
Astronomical Twilight 3:40 AM EEST 10:39 PM EEST
Moon 6:16 PM EEST (7/12) 2:43 AM EEST (7/12)
Length of Visible Light 16h 00m
Length of Day
14h 54m
Waxing Gibbous, 90% of the Moon is Illuminated
Jul 12
Waxing Gibbous
Jul 15
Full
Jul 23
Last Quarter
Jul 30
New
Aug 6
First Quarter

Hourly Weather History & Observations

Time (EEST) Temp. Heat Index Dew Point Humidity Pressure Visibility Wind Dir Wind Speed Gust Speed Precip Events Conditions
12:20 AM 77.0 °F - 69.8 °F 78% 29.92 in - Variable 9.2 mph - N/A   Clear
12:50 AM 77.0 °F - 69.8 °F 78% 29.92 in - ENE 8.1 mph - N/A   Clear
1:20 AM 75.2 °F - 71.6 °F 89% 29.89 in - ENE 6.9 mph - N/A   Clear
1:50 AM 75.2 °F - 71.6 °F 89% 29.89 in - NE 6.9 mph - N/A   Clear
2:20 AM 75.2 °F - 71.6 °F 89% 29.89 in - NNE 9.2 mph - N/A   Clear
2:50 AM 75.2 °F - 71.6 °F 89% 29.89 in - NE 10.4 mph - N/A   Clear
3:00 AM 75 °F - 71 °F 84% 29.89 in 6 mi NE 10.4 mph - -  
3:20 AM 75.2 °F - 71.6 °F 89% 29.89 in - NNE 8.1 mph - N/A   Clear
3:50 AM 75.2 °F - 71.6 °F 89% 29.89 in - NE 8.1 mph - N/A   Clear
4:20 AM 73.4 °F - 71.6 °F 94% 29.89 in - NNE 9.2 mph - N/A   Clear
4:50 AM 73.4 °F - 71.6 °F 94% 29.89 in - NNE 10.4 mph - N/A   Clear
5:20 AM 73.4 °F - 71.6 °F 94% 29.89 in - NNE 9.2 mph - N/A   Clear
5:50 AM 73.4 °F - 71.6 °F 94% 29.89 in - NNE 11.5 mph - N/A   Clear
6:20 AM 73.4 °F - 71.6 °F 94% 29.89 in 6.2 mi NNE 10.4 mph - N/A   Partly Cloudy
6:50 AM 75.2 °F - 71.6 °F 89% 29.89 in - NNE 10.4 mph - N/A   Clear
8:20 AM 78.8 °F - 69.8 °F 74% 29.89 in 6.2 mi NE 9.2 mph - N/A   Partly Cloudy
8:50 AM 78.8 °F - 68.0 °F 69% 29.89 in 6.2 mi NNE 9.2 mph - N/A   Partly Cloudy
9:00 AM 79 °F - 69 °F 63% 29.91 in 6 mi NNE 9.2 mph - -   Scattered Clouds
9:20 AM 80.6 °F 82.7 °F 66.2 °F 61% 29.92 in 6.2 mi NNE 8.1 mph - N/A   Partly Cloudy
9:50 AM 80.6 °F 82.7 °F 66.2 °F 61% 29.89 in 6.2 mi NNE 12.7 mph - N/A   Partly Cloudy
10:20 AM 82.4 °F 83.9 °F 64.4 °F 54% 29.89 in 6.2 mi ENE 12.7 mph - N/A   Scattered Clouds
10:50 AM 82.4 °F 83.4 °F 62.6 °F 51% 29.89 in 6.2 mi NE 12.7 mph - N/A   Scattered Clouds
11:20 AM 84.2 °F 84.4 °F 60.8 °F 45% 29.89 in 6.2 mi NE 10.4 mph - N/A   Scattered Clouds
11:50 AM 86.0 °F 85.4 °F 59.0 °F 40% 29.89 in 6.2 mi NE 13.8 mph - N/A   Scattered Clouds
12:20 PM 86.0 °F 86.6 °F 62.6 °F 45% 29.89 in 6.2 mi NNE 12.7 mph - N/A   Scattered Clouds
12:50 PM 84.2 °F 85.0 °F 62.6 °F 48% 29.89 in 6.2 mi North 15.0 mph - N/A   Scattered Clouds
1:20 PM 86.0 °F 86.6 °F 62.6 °F 45% 29.89 in 6.2 mi North 18.4 mph - N/A   Scattered Clouds
1:50 PM 86.0 °F 87.3 °F 64.4 °F 48% 29.89 in 6.2 mi NNE 18.4 mph - N/A   Scattered Clouds
2:20 PM 86.0 °F 86.6 °F 62.6 °F 45% 29.89 in 6.2 mi North 17.3 mph - N/A   Scattered Clouds
2:50 PM 86.0 °F 86.6 °F 62.6 °F 45% 29.89 in - NNE 15.0 mph - N/A   Clear
3:00 PM 86 °F - 61 °F 33% 29.89 in 6 mi NNE 15.0 mph - -  
3:20 PM 86.0 °F 86.1 °F 60.8 °F 43% 29.89 in - NNE 16.1 mph - N/A   Clear
3:50 PM 86.0 °F 85.4 °F 59.0 °F 40% 29.89 in - North 17.3 mph - N/A   Clear
4:20 PM 86.0 °F 85.4 °F 59.0 °F 40% 29.89 in - North 17.3 mph - N/A   Clear
4:50 PM 86.0 °F 86.1 °F 60.8 °F 43% 29.86 in - North 16.1 mph - N/A   Clear
5:20 PM 84.2 °F 84.4 °F 60.8 °F 45% 29.86 in - North 17.3 mph - N/A   Clear
5:50 PM 84.2 °F 84.4 °F 60.8 °F 45% 29.86 in - NNE 15.0 mph - N/A   Clear
6:20 PM 84.2 °F 83.8 °F 59.0 °F 42% 29.86 in - NNE 16.1 mph - N/A   Clear
6:50 PM 82.4 °F 82.9 °F 60.8 °F 48% 29.86 in - North 16.1 mph - N/A   Clear
7:20 PM 82.4 °F 82.9 °F 60.8 °F 48% 29.86 in - NNE 15.0 mph - N/A   Clear
7:50 PM 80.6 °F 81.5 °F 60.8 °F 51% 29.89 in - NNE 12.7 mph - N/A   Clear
8:20 PM 80.6 °F 81.5 °F 60.8 °F 51% 29.86 in - NE 13.8 mph - N/A   Clear
8:50 PM 80.6 °F 81.5 °F 60.8 °F 51% 29.89 in - NE 10.4 mph - N/A   Clear
9:00 PM 80 °F - 59 °F 38% 29.88 in 6 mi NE 10.4 mph - -  
9:20 PM 78.8 °F - 60.8 °F 54% 29.89 in - NNE 9.2 mph - N/A   Clear
9:50 PM 78.8 °F - 64.4 °F 61% 29.89 in - NNE 8.1 mph - N/A   Clear
10:20 PM 77.0 °F - 64.4 °F 65% 29.89 in - NNE 9.2 mph - N/A   Clear
10:50 PM 77.0 °F - 64.4 °F 65% 29.89 in - NE 4.6 mph 17.3 mph N/A   Clear
11:20 PM 77.0 °F - 64.4 °F 65% 29.89 in - NE 5.8 mph - N/A   Clear
11:50 PM 77.0 °F - 62.6 °F 61% 29.89 in - NNE 6.9 mph - N/A   Clear